Simultaneous Nadir Overpasses (SNOs) Predictions

Prediction of SNOs between AQUA and METOP-A Satellite Orbit:

Table of predicted SNOs for the next 14.0 days since TLE Epoch: 11/11/2016
Index Date (AQUA) Time (AQUA) Lat,Lon (AQUA) SZA (AQUA ) Date (METOP-A) Time (METOP-A) Lat,Lon (METOP-A) SZA (METOP-A ) Distance(km) Time Diff (sec)
1 11/12/2016 23:07:45 -73.79, 7.24 88.29 11/12/2016 23:07:06 -73.79, 7.18 88.29 1.90 39
2 11/12/2016 23:57:14 73.87, 174.70 91.81 11/12/2016 23:57:44 73.87, 174.71 91.80 0.73 30
3 11/15/2016 18:42:00 -73.81, 73.64 87.55 11/15/2016 18:41:27 -73.83, 73.71 87.52 3.13 33
4 11/15/2016 19:31:28 73.85,-118.80 92.50 11/15/2016 19:32:06 73.86,-118.90 92.52 3.32 38
5 11/18/2016 14:16:14 -73.84, 140.02 86.83 11/18/2016 14:15:48 -73.82, 140.10 86.85 3.17 26
6 11/18/2016 15:05:42 73.88, -52.44 93.22 11/18/2016 15:06:26 73.89, -52.40 93.23 1.83 44
7 11/21/2016 09:00:48 73.10, 40.38 93.05 11/21/2016 08:59:43 73.05, 37.43 93.03 95.74 65
8 11/21/2016 09:50:28 -73.83,-153.53 86.20 11/21/2016 09:50:10 -73.81,-153.52 86.22 2.57 18
9 11/21/2016 10:39:56 73.88, 14.00 93.86 11/21/2016 10:40:48 73.88, 13.98 93.85 1.08 52
10 11/24/2016 04:35:08 73.43, 106.15 93.97 11/24/2016 04:33:58 73.38, 104.57 93.94 50.45 70
11 11/24/2016 05:24:42 -73.84, -87.10 85.61 11/24/2016 05:24:31 -73.84, -87.02 85.60 2.32 11
12 11/24/2016 06:14:10 73.90, 80.42 94.46 11/24/2016 06:15:09 73.91, 80.46 94.47 1.64 59




NCC Satellite Simultaneous Nadir Overpasses (SNOs) Prediction Service
